ISS DEB (44788 NORAD) Tracking and Keplerian Element Data

This shows tracking and keplerian element data for the satellite.

Feedback or suggestion? Click here.




ElementValue
Catalog44788
NameISS DEB
Epoch Orbit8465
Epoch Day130.40723855
Epoch Year2021
RAAN120.5551
Inclination51.6207
Eccentricity0.0005417
Argument of Perigee79.7237
Mean Anonmoly280.4385
Mean Motion16.02755174
Decay Rate0.00522465
L11 44788U 98067QT 21130.40723855 .00522465 13516-3 84913-3 0 9993
L22 44788 51.6207 120.5551 0005417 79.7237 280.4385 16.02755174 84656

Live tracking and technical data element details for ISS DEB (NORAD 44788). ISS DEB can be tracked NOW for your location showing map with azimuth and elevation plus other details from your city location.

Track the satellite on the map from your city or location and see movement details for azimuth, elevation, latitude, longitude, range, height, and movement on the map or in text.







IsCatalogInMostPopularTable: catalog: 44788, numindb: 25157
Update: records affected: 1



GetName: 44788 ISS DEB

Hit Count: updated at: Tue, 11 May 2021 20:26:19 GMT